Time,TemperatureF,DewpointF,PressureIn,WindDirection,WindDirectionDegrees,WindSpeedMPH,WindSpeedGustMPH,Humidity,HourlyPrecipIn,Conditions,Clouds,dailyrainin,SolarRadiationWatts/m^2,SoftwareType,DateUTC
2013-01-03 00:03:00,11.0,8.0,-100.00,NW,304,1.0,6.0,89,0.00,,,0.00,0.000000,,2013-01-03 05:03:00,
2013-01-03 00:33:00,11.0,8.0,-100.00,NW,326,1.0,7.0,89,0.00,,,0.00,0.000000,,2013-01-03 05:33:00,
2013-01-03 00:42:00,11.0,8.0,-100.00,NW,326,1.0,7.0,89,0.00,,,0.00,0.000000,,2013-01-03 05:42:00,
2013-01-03 00:53:00,11.0,8.0,-100.00,NW,326,1.0,7.0,89,0.00,,,0.00,0.000000,,2013-01-03 05:53:00,
2013-01-03 01:03:00,11.0,8.0,-100.00,NW,326,1.0,7.0,89,0.00,,,0.00,0.000000,,2013-01-03 06:03:00,
2013-01-03 01:33:00,10.0,7.0,-100.00,NW,324,0.0,7.0,88,0.00,,,0.00,0.000000,,2013-01-03 06:33:00,
2013-01-03 01:43:00,10.0,7.0,-100.00,NW,324,0.0,7.0,88,0.00,,,0.00,0.000000,,2013-01-03 06:43:00,
2013-01-03 01:53:00,10.0,7.0,-100.00,NW,324,0.0,7.0,88,0.00,,,0.00,0.000000,,2013-01-03 06:53:00,
2013-01-03 02:02:00,10.0,7.0,-100.00,NW,324,0.0,7.0,88,0.00,,,0.00,0.000000,,2013-01-03 07:02:00,
2013-01-03 02:33:00,7.0,4.0,-100.00,South,191,0.0,0.0,89,0.00,,,0.00,0.000000,,2013-01-03 07:33:00,
2013-01-03 02:43:00,7.0,4.0,-100.00,South,191,0.0,0.0,89,0.00,,,0.00,0.000000,,2013-01-03 07:43:00,
2013-01-03 02:53:00,7.0,4.0,-100.00,South,191,0.0,0.0,89,0.00,,,0.00,0.000000,,2013-01-03 07:53:00,
2013-01-03 03:02:00,7.0,4.0,-100.00,South,191,0.0,0.0,89,0.00,,,0.00,0.000000,,2013-01-03 08:02:00,
2013-01-03 03:33:00,8.0,6.0,-100.00,WSW,245,0.0,0.0,90,0.00,,,0.00,0.000000,,2013-01-03 08:33:00,
2013-01-03 03:43:00,8.0,6.0,-100.00,WSW,245,0.0,0.0,90,0.00,,,0.00,0.000000,,2013-01-03 08:43:00,
2013-01-03 03:53:00,8.0,6.0,-100.00,WSW,245,0.0,0.0,90,0.00,,,0.00,0.000000,,2013-01-03 08:53:00,
2013-01-03 04:03:00,8.0,6.0,-100.00,WSW,245,0.0,0.0,90,0.00,,,0.00,0.000000,,2013-01-03 09:03:00,
2013-01-03 04:34:00,8.0,6.0,-100.00,West,263,0.0,0.0,90,0.00,,,0.00,0.000000,,2013-01-03 09:34:00,
2013-01-03 04:43:00,8.0,6.0,-100.00,West,263,0.0,0.0,90,0.00,,,0.00,0.000000,,2013-01-03 09:43:00,
2013-01-03 04:53:00,8.0,6.0,-100.00,West,263,0.0,0.0,90,0.00,,,0.00,0.000000,,2013-01-03 09:53:00,
2013-01-03 05:02:00,8.0,6.0,-100.00,West,263,0.0,0.0,90,0.00,,,0.00,0.000000,,2013-01-03 10:02:00,
2013-01-03 05:33:00,10.0,7.0,-100.00,West,271,0.0,0.0,89,0.00,,,0.00,0.000000,,2013-01-03 10:33:00,
2013-01-03 05:43:00,10.0,7.0,-100.00,West,271,0.0,0.0,89,0.00,,,0.00,0.000000,,2013-01-03 10:43:00,
2013-01-03 05:53:00,10.0,7.0,-100.00,West,271,0.0,0.0,89,0.00,,,0.00,0.000000,,2013-01-03 10:53:00,
2013-01-03 06:02:00,10.0,7.0,-100.00,West,271,0.0,0.0,89,0.00,,,0.00,0.000000,,2013-01-03 11:02:00,
2013-01-03 06:33:00,10.0,7.0,-100.00,WSW,251,0.0,0.0,88,0.00,,,0.00,0.000000,,2013-01-03 11:33:00,
2013-01-03 06:43:00,10.0,7.0,-100.00,WSW,251,0.0,0.0,88,0.00,,,0.00,0.000000,,2013-01-03 11:43:00,
2013-01-03 06:53:00,10.0,7.0,-100.00,WSW,251,0.0,0.0,88,0.00,,,0.00,0.000000,,2013-01-03 11:53:00,
2013-01-03 07:03:00,10.0,7.0,-100.00,WSW,251,0.0,0.0,88,0.00,,,0.00,0.000000,,2013-01-03 12:03:00,
2013-01-03 07:33:00,11.0,8.0,-100.00,WSW,251,4.0,9.0,87,0.00,,,0.00,0.000000,,2013-01-03 12:33:00,
2013-01-03 07:43:00,11.0,8.0,-100.00,WSW,251,4.0,9.0,87,0.00,,,0.00,0.000000,,2013-01-03 12:43:00,
2013-01-03 07:53:00,11.0,8.0,-100.00,WSW,251,4.0,9.0,87,0.00,,,0.00,0.000000,,2013-01-03 12:53:00,
2013-01-03 08:02:00,11.0,8.0,-100.00,WSW,251,4.0,9.0,87,0.00,,,0.00,0.000000,,2013-01-03 13:02:00,
2013-01-03 08:33:00,12.0,9.0,-100.00,West,261,2.0,7.0,86,0.00,,,0.00,7.000000,,2013-01-03 13:33:00,
2013-01-03 08:43:00,12.0,9.0,-100.00,West,261,2.0,7.0,86,0.00,,,0.00,7.000000,,2013-01-03 13:43:00,
2013-01-03 08:53:00,12.0,9.0,-100.00,West,261,2.0,7.0,86,0.00,,,0.00,7.000000,,2013-01-03 13:53:00,
2013-01-03 09:03:00,12.0,9.0,-100.00,West,261,2.0,7.0,86,0.00,,,0.00,7.000000,,2013-01-03 14:03:00,
2013-01-03 09:33:00,17.0,12.0,-100.00,West,277,4.0,10.0,81,0.00,,,0.00,145.000000,,2013-01-03 14:33:00,
2013-01-03 09:43:00,17.0,12.0,-100.00,West,277,4.0,10.0,81,0.00,,,0.00,145.000000,,2013-01-03 14:43:00,
2013-01-03 09:53:00,17.0,12.0,-100.00,West,277,4.0,10.0,81,0.00,,,0.00,145.000000,,2013-01-03 14:53:00,
2013-01-03 10:03:00,17.0,12.0,-100.00,West,277,4.0,10.0,81,0.00,,,0.00,145.000000,,2013-01-03 15:03:00,
2013-01-03 10:34:00,19.0,12.0,-100.00,WNW,285,5.0,13.0,73,0.00,,,0.00,294.000000,,2013-01-03 15:34:00,
2013-01-03 10:43:00,19.0,12.0,-100.00,WNW,285,5.0,13.0,73,0.00,,,0.00,294.000000,,2013-01-03 15:43:00,
2013-01-03 10:53:00,19.0,12.0,-100.00,WNW,285,5.0,13.0,73,0.00,,,0.00,294.000000,,2013-01-03 15:53:00,
2013-01-03 11:03:00,19.0,12.0,-100.00,WNW,285,5.0,13.0,73,0.00,,,0.00,294.000000,,2013-01-03 16:03:00,
2013-01-03 11:34:00,17.0,10.0,-100.00,West,269,4.0,15.0,73,0.00,,,0.00,217.000000,,2013-01-03 16:34:00,
2013-01-03 11:43:00,17.0,10.0,-100.00,West,269,4.0,15.0,73,0.00,,,0.00,217.000000,,2013-01-03 16:43:00,
2013-01-03 11:53:00,17.0,10.0,-100.00,West,269,4.0,15.0,73,0.00,,,0.00,217.000000,,2013-01-03 16:53:00,
2013-01-03 12:03:00,17.0,10.0,-100.00,West,269,4.0,15.0,73,0.00,,,0.00,217.000000,,2013-01-03 17:03:00,
2013-01-03 12:33:00,20.0,11.0,-100.00,West,269,6.0,15.0,68,0.00,,,0.00,216.000000,,2013-01-03 17:33:00,
2013-01-03 12:43:00,20.0,11.0,-100.00,West,269,6.0,15.0,68,0.00,,,0.00,216.000000,,2013-01-03 17:43:00,
2013-01-03 12:53:00,20.0,11.0,-100.00,West,269,6.0,15.0,68,0.00,,,0.00,216.000000,,2013-01-03 17:53:00,
2013-01-03 13:03:00,20.0,11.0,-100.00,West,269,6.0,15.0,68,0.00,,,0.00,216.000000,,2013-01-03 18:03:00,
2013-01-03 13:33:00,22.0,16.0,-100.00,WSW,247,6.0,12.0,76,0.00,,,0.00,201.000000,,2013-01-03 18:33:00,
2013-01-03 13:43:00,22.0,16.0,-100.00,WSW,247,6.0,12.0,76,0.00,,,0.00,201.000000,,2013-01-03 18:43:00,
2013-01-03 13:53:00,22.0,16.0,-100.00,WSW,247,6.0,12.0,76,0.00,,,0.00,201.000000,,2013-01-03 18:53:00,
2013-01-03 14:03:00,22.0,16.0,-100.00,WSW,247,6.0,12.0,76,0.00,,,0.00,201.000000,,2013-01-03 19:03:00,
2013-01-03 14:57:00,25.0,15.0,-100.00,West,266,10.0,19.0,65,0.00,,,0.00,308.000000,,2013-01-03 19:57:00,
2013-01-03 15:03:00,25.0,15.0,-100.00,West,266,10.0,19.0,65,0.00,,,0.00,308.000000,,2013-01-03 20:03:00,
2013-01-03 15:33:00,24.0,14.0,-100.00,West,274,8.0,17.0,66,0.00,,,0.00,187.000000,,2013-01-03 20:33:00,
2013-01-03 15:43:00,24.0,14.0,-100.00,West,274,8.0,17.0,66,0.00,,,0.00,187.000000,,2013-01-03 20:43:00,
2013-01-03 15:53:00,24.0,14.0,-100.00,West,274,8.0,17.0,66,0.00,,,0.00,187.000000,,2013-01-03 20:53:00,
2013-01-03 16:03:00,24.0,14.0,-100.00,West,274,8.0,17.0,66,0.00,,,0.00,187.000000,,2013-01-03 21:03:00,
2013-01-03 16:38:00,24.0,15.0,-100.00,WSW,258,9.0,17.0,68,0.00,,,0.00,89.000000,,2013-01-03 21:38:00,
2013-01-03 16:50:00,24.0,15.0,-100.00,WSW,258,9.0,17.0,68,0.00,,,0.00,89.000000,,2013-01-03 21:50:00,
2013-01-03 17:03:00,24.0,15.0,-100.00,WSW,258,9.0,17.0,68,0.00,,,0.00,89.000000,,2013-01-03 22:03:00,
2013-01-03 17:33:00,24.0,17.0,-100.00,West,269,8.0,17.0,73,0.00,,,0.00,20.000000,,2013-01-03 22:33:00,
2013-01-03 17:43:00,24.0,17.0,-100.00,West,269,8.0,17.0,73,0.00,,,0.00,20.000000,,2013-01-03 22:43:00,
2013-01-03 17:53:00,24.0,17.0,-100.00,West,269,8.0,17.0,73,0.00,,,0.00,20.000000,,2013-01-03 22:53:00,
2013-01-03 18:03:00,24.0,17.0,-100.00,West,269,8.0,17.0,73,0.00,,,0.00,20.000000,,2013-01-03 23:03:00,
2013-01-03 18:33:00,24.0,17.0,-100.00,West,272,7.0,18.0,75,0.00,,,0.00,1.000000,,2013-01-03 23:33:00,
2013-01-03 18:43:00,24.0,17.0,-100.00,West,272,7.0,18.0,75,0.00,,,0.00,1.000000,,2013-01-03 23:43:00,
2013-01-03 18:53:00,24.0,17.0,-100.00,West,272,7.0,18.0,75,0.00,,,0.00,1.000000,,2013-01-03 23:53:00,
2013-01-03 19:03:00,24.0,17.0,-100.00,West,272,7.0,18.0,75,0.00,,,0.00,1.000000,,2013-01-04 00:03:00,
2013-01-03 19:33:00,24.0,17.0,-100.00,West,276,7.0,20.0,74,0.00,,,0.00,0.000000,,2013-01-04 00:33:00,
2013-01-03 19:42:00,24.0,17.0,-100.00,West,276,7.0,20.0,74,0.00,,,0.00,0.000000,,2013-01-04 00:42:00,
2013-01-03 19:53:00,24.0,17.0,-100.00,West,276,7.0,20.0,74,0.00,,,0.00,0.000000,,2013-01-04 00:53:00,
2013-01-03 20:02:00,24.0,17.0,-100.00,West,276,7.0,20.0,74,0.00,,,0.00,0.000000,,2013-01-04 01:02:00,
2013-01-03 20:33:00,24.0,17.0,-100.00,West,277,7.0,19.0,74,0.00,,,0.00,0.000000,,2013-01-04 01:33:00,
2013-01-03 20:42:00,24.0,17.0,-100.00,West,277,7.0,19.0,74,0.00,,,0.00,0.000000,,2013-01-04 01:42:00,
2013-01-03 20:53:00,24.0,17.0,-100.00,West,277,7.0,19.0,74,0.00,,,0.00,0.000000,,2013-01-04 01:53:00,
2013-01-03 21:02:00,24.0,17.0,-100.00,West,277,7.0,19.0,74,0.00,,,0.00,0.000000,,2013-01-04 02:02:00,
2013-01-03 21:33:00,24.0,18.0,-100.00,West,279,7.0,20.0,76,0.00,,,0.00,0.000000,,2013-01-04 02:33:00,
2013-01-03 21:42:00,24.0,18.0,-100.00,West,279,7.0,20.0,76,0.00,,,0.00,0.000000,,2013-01-04 02:42:00,
2013-01-03 21:53:00,24.0,18.0,-100.00,West,279,7.0,20.0,76,0.00,,,0.00,0.000000,,2013-01-04 02:53:00,
2013-01-03 22:03:00,24.0,18.0,-100.00,West,279,7.0,20.0,76,0.00,,,0.00,0.000000,,2013-01-04 03:03:00,
2013-01-03 22:33:00,24.0,18.0,-100.00,WNW,291,7.0,19.0,78,0.00,,,0.00,0.000000,,2013-01-04 03:33:00,
2013-01-03 22:43:00,24.0,18.0,-100.00,WNW,291,7.0,19.0,78,0.00,,,0.00,0.000000,,2013-01-04 03:43:00,
2013-01-03 22:53:00,24.0,18.0,-100.00,WNW,291,7.0,19.0,78,0.00,,,0.00,0.000000,,2013-01-04 03:53:00,
2013-01-03 23:02:00,24.0,18.0,-100.00,WNW,291,7.0,19.0,78,0.00,,,0.00,0.000000,,2013-01-04 04:02:00,
2013-01-03 23:32:00,23.0,18.0,-100.00,West,281,8.0,19.0,80,0.00,,,0.00,0.000000,,2013-01-04 04:32:00,
2013-01-03 23:42:00,23.0,18.0,-100.00,West,281,8.0,19.0,80,0.00,,,0.00,0.000000,,2013-01-04 04:42:00,
2013-01-03 23:53:00,23.0,18.0,-100.00,West,281,8.0,19.0,80,0.00,,,0.00,0.000000,,2013-01-04 04:53:00,